AAL598 KLAS-KDFW

Flight info

Callsign AAL598
Flight time 1h 57m
Altitude 37000
Route NIITZ4 SSKEE GUP J72 TXO TURKI VKTRY2
Aircraft B77L/H-SDE1E2E3FGHIJ2J3J4J5M1RWXY/LB1D1

Departure

Time 2026-05-04 17:08
Airport Harry Reid International Airport (KLAS)

Arrival

Time 2026-05-04 19:05
Airport Dallas Fort Worth International Airport (KDFW)
Time Latitude Longitude Altitude Speed Heading
2026-05-04 16:56 36.08038 -115.13474 2095 ft 0 kts 272°
2026-05-04 17:01 36.08038 -115.13457 2076 ft 3 kts 272°
2026-05-04 17:02 36.08040 -115.13410 2094 ft 3 kts 231°
2026-05-04 17:02 36.08060 -115.13395 2094 ft 0 kts 185°
2026-05-04 17:04 36.08054 -115.13394 2094 ft 5 kts 171°
2026-05-04 17:04 36.07841 -115.13289 2092 ft 27 kts 116°
2026-05-04 17:05 36.07827 -115.12770 2072 ft 31 kts 90°
2026-05-04 17:05 36.07822 -115.12295 2058 ft 22 kts 103°
2026-05-04 17:06 36.07644 -115.12210 2056 ft 16 kts 265°
2026-05-04 17:06 36.07643 -115.12223 2054 ft 0 kts 266°
2026-05-04 17:07 36.07641 -115.12258 2055 ft 26 kts 266°
2026-05-04 17:07 36.07639 -115.13261 2091 ft 145 kts 270°
2026-05-04 17:07 36.07659 -115.14793 2304 ft 202 kts 267°
2026-05-04 17:08 36.07678 -115.16629 3199 ft 215 kts 268°
2026-05-04 17:08 36.06918 -115.19887 5356 ft 207 kts 215°
2026-05-04 17:08 36.05571 -115.20547 5922 ft 217 kts 186°
2026-05-04 17:09 36.04013 -115.20404 6236 ft 236 kts 165°
2026-05-04 17:09 36.02409 -115.19643 6593 ft 255 kts 158°
2026-05-04 17:09 36.00775 -115.18716 7244 ft 261 kts 157°
2026-05-04 17:10 35.97452 -115.16814 8721 ft 269 kts 158°
2026-05-04 17:10 35.92165 -115.13884 10515 ft 300 kts 159°
2026-05-04 17:11 35.90186 -115.12801 10833 ft 318 kts 157°
2026-05-04 17:11 35.88325 -115.11217 11148 ft 340 kts 134°
2026-05-04 17:11 35.86757 -115.05650 12797 ft 361 kts 91°
2026-05-04 17:12 35.86854 -115.02533 13379 ft 368 kts 92°
2026-05-04 17:12 35.86654 -114.96110 14734 ft 382 kts 96°
2026-05-04 17:13 35.86194 -114.85992 16776 ft 406 kts 96°
2026-05-04 17:14 35.85778 -114.75271 18684 ft 428 kts 96°
2026-05-04 17:14 35.85642 -114.71623 19292 ft 434 kts 97°
2026-05-04 17:14 35.85364 -114.64038 20577 ft 445 kts 97°
2026-05-04 17:15 35.85222 -114.60253 21208 ft 451 kts 97°
2026-05-04 17:15 35.84922 -114.52425 22466 ft 463 kts 97°
2026-05-04 17:16 35.84607 -114.44387 23650 ft 475 kts 97°
2026-05-04 17:16 35.84112 -114.31963 25208 ft 491 kts 98°
2026-05-04 17:17 35.83937 -114.27732 25646 ft 498 kts 99°
2026-05-04 17:17 35.83409 -114.14800 27146 ft 510 kts 99°
2026-05-04 17:18 35.83227 -114.10477 27597 ft 515 kts 99°
2026-05-04 17:18 35.82848 -114.01569 28473 ft 526 kts 100°
2026-05-04 17:19 35.82455 -113.92494 29304 ft 535 kts 100°
2026-05-04 17:19 35.82049 -113.83281 30089 ft 542 kts 101°
2026-05-04 17:20 35.81632 -113.73944 30749 ft 549 kts 101°
2026-05-04 17:20 35.81202 -113.64463 31226 ft 558 kts 101°
2026-05-04 17:20 35.80994 -113.59676 31449 ft 561 kts 101°
2026-05-04 17:21 35.80537 -113.50150 32168 ft 560 kts 101°
2026-05-04 17:21 35.80077 -113.40521 32699 ft 567 kts 101°
2026-05-04 17:22 35.79844 -113.35645 32898 ft 573 kts 101°
2026-05-04 17:22 35.79549 -113.30760 33219 ft 572 kts 102°
2026-05-04 17:23 35.78839 -113.15994 34191 ft 579 kts 100°
2026-05-04 17:23 35.78624 -113.11027 34379 ft 582 kts 100°
2026-05-04 17:23 35.78141 -113.01058 34890 ft 584 kts 100°
2026-05-04 17:24 35.77880 -112.96051 35175 ft 585 kts 100°
2026-05-04 17:24 35.77087 -112.81052 36027 ft 585 kts 99°
2026-05-04 17:25 35.76912 -112.77748 36214 ft 585 kts 99°
2026-05-04 17:25 35.76336 -112.67753 36715 ft 584 kts 102°
2026-05-04 17:26 35.74761 -112.56339 36874 ft 582 kts 108°
2026-05-04 17:27 35.71210 -112.33684 36982 ft 578 kts 107°
2026-05-04 17:28 35.68239 -112.14190 37031 ft 580 kts 107°
2026-05-04 17:29 35.63707 -111.84953 36927 ft 582 kts 105°
2026-05-04 17:31 35.62323 -111.59945 36868 ft 588 kts 96°
2026-05-04 17:32 35.61266 -111.34871 36863 ft 587 kts 97°
2026-05-04 17:33 35.59522 -111.14987 36868 ft 585 kts 102°
2026-05-04 17:34 35.57480 -110.95209 36892 ft 585 kts 101°
2026-05-04 17:35 35.55032 -110.70395 36894 ft 586 kts 101°
2026-05-04 17:36 35.54033 -110.60473 36897 ft 586 kts 101°
2026-05-04 17:36 35.53022 -110.50538 36885 ft 586 kts 101°
2026-05-04 17:37 35.52003 -110.40602 36892 ft 587 kts 101°
2026-05-04 17:37 35.50974 -110.30651 36880 ft 588 kts 101°
2026-05-04 17:38 35.49937 -110.20690 36900 ft 588 kts 101°
2026-05-04 17:38 35.48901 -110.10815 36883 ft 587 kts 101°
2026-05-04 17:39 35.47319 -109.95911 36881 ft 587 kts 101°
2026-05-04 17:39 35.46254 -109.85974 36886 ft 587 kts 101°
2026-05-04 17:40 35.45182 -109.76043 36888 ft 587 kts 101°
2026-05-04 17:40 35.44101 -109.66113 36888 ft 588 kts 101°
2026-05-04 17:41 35.43011 -109.56178 36890 ft 588 kts 101°
2026-05-04 17:41 35.41913 -109.46244 36885 ft 588 kts 101°
2026-05-04 17:42 35.40806 -109.36305 36885 ft 588 kts 101°
2026-05-04 17:42 35.39700 -109.26443 36922 ft 587 kts 101°
2026-05-04 17:43 35.38583 -109.16557 36942 ft 585 kts 101°
2026-05-04 17:43 35.37458 -109.06691 36926 ft 585 kts 101°
2026-05-04 17:44 35.36326 -108.96824 36980 ft 586 kts 101°
2026-05-04 17:44 35.35181 -108.86935 37023 ft 587 kts 101°
2026-05-04 17:45 35.34028 -108.77032 37018 ft 587 kts 101°
2026-05-04 17:45 35.33448 -108.72083 36806 ft 587 kts 101°
2026-05-04 17:45 35.32867 -108.67134 36812 ft 587 kts 101°
2026-05-04 17:46 35.31699 -108.57238 36814 ft 587 kts 101°
2026-05-04 17:46 35.30527 -108.47388 36787 ft 587 kts 101°
2026-05-04 17:47 35.29355 -108.37614 36816 ft 586 kts 101°
2026-05-04 17:47 35.28164 -108.27758 36856 ft 585 kts 101°
2026-05-04 17:48 35.26966 -108.17898 36940 ft 585 kts 101°
2026-05-04 17:48 35.25762 -108.08055 37035 ft 585 kts 101°
2026-05-04 17:49 35.24549 -107.98213 37113 ft 584 kts 101°
2026-05-04 17:49 35.23338 -107.88448 37130 ft 585 kts 101°
2026-05-04 17:50 35.22109 -107.78615 36830 ft 585 kts 101°
2026-05-04 17:50 35.20869 -107.68755 36839 ft 588 kts 101°
2026-05-04 17:51 35.19615 -107.58857 36806 ft 589 kts 101°
2026-05-04 17:51 35.18356 -107.48982 36847 ft 587 kts 101°
2026-05-04 17:52 35.17093 -107.39127 36862 ft 585 kts 101°
2026-05-04 17:52 35.15824 -107.29302 36847 ft 586 kts 101°
2026-05-04 17:53 35.14549 -107.19506 36861 ft 588 kts 101°
2026-05-04 17:53 35.13255 -107.09618 36859 ft 590 kts 101°
2026-05-04 17:54 35.11953 -106.99727 36856 ft 590 kts 101°
2026-05-04 17:54 35.10640 -106.89825 36869 ft 589 kts 101°
2026-05-04 17:55 35.10021 -106.85179 37104 ft 589 kts 101°
2026-05-04 17:55 35.09490 -106.81200 37093 ft 589 kts 101°
2026-05-04 17:55 35.08168 -106.71345 37104 ft 588 kts 102°
2026-05-04 17:56 35.06846 -106.61560 37072 ft 588 kts 101°
2026-05-04 17:56 35.05509 -106.51718 37068 ft 588 kts 101°
2026-05-04 17:57 35.04163 -106.41875 37022 ft 588 kts 101°
2026-05-04 17:57 35.02808 -106.32035 36953 ft 587 kts 101°
2026-05-04 17:58 35.01449 -106.22218 36908 ft 586 kts 101°
2026-05-04 17:58 35.00088 -106.12430 36873 ft 584 kts 101°
2026-05-04 17:59 34.98721 -106.02674 36870 ft 583 kts 101°
2026-05-04 18:00 34.96708 -105.88425 36879 ft 584 kts 101°
2026-05-04 18:00 34.95327 -105.78709 36878 ft 585 kts 101°
2026-05-04 18:01 34.93918 -105.68864 36871 ft 586 kts 101°
2026-05-04 18:01 34.92518 -105.59139 36854 ft 586 kts 101°
2026-05-04 18:02 34.90396 -105.44497 36833 ft 584 kts 101°
2026-05-04 18:02 34.88976 -105.34774 36812 ft 583 kts 101°
2026-05-04 18:03 34.87543 -105.25021 36820 ft 584 kts 101°
2026-05-04 18:03 34.86104 -105.15280 36802 ft 585 kts 101°
2026-05-04 18:04 34.84658 -105.05543 36775 ft 586 kts 101°
2026-05-04 18:05 34.82474 -104.90957 36833 ft 586 kts 101°
2026-05-04 18:05 34.81001 -104.81178 36884 ft 586 kts 101°
2026-05-04 18:06 34.78781 -104.66550 36899 ft 586 kts 101°
2026-05-04 18:06 34.77292 -104.56808 36886 ft 587 kts 101°
2026-05-04 18:07 34.75790 -104.47031 36840 ft 587 kts 101°
2026-05-04 18:07 34.74284 -104.37285 36793 ft 587 kts 101°
2026-05-04 18:08 34.72782 -104.27618 36749 ft 586 kts 101°
2026-05-04 18:08 34.71261 -104.17890 36757 ft 586 kts 101°
2026-05-04 18:09 34.68194 -103.98422 36709 ft 586 kts 101°
2026-05-04 18:10 34.66657 -103.88739 36750 ft 585 kts 101°
2026-05-04 18:10 34.65105 -103.79021 36752 ft 585 kts 101°
2026-05-04 18:11 34.63551 -103.69335 36743 ft 585 kts 101°
2026-05-04 18:11 34.61988 -103.59646 36759 ft 586 kts 102°
2026-05-04 18:12 34.60419 -103.49979 36771 ft 586 kts 102°
2026-05-04 18:12 34.58835 -103.40261 36786 ft 587 kts 101°
2026-05-04 18:13 34.57237 -103.30516 36821 ft 588 kts 102°
2026-05-04 18:14 34.54830 -103.15923 36843 ft 588 kts 102°
2026-05-04 18:14 34.53208 -103.06156 36830 ft 589 kts 101°
2026-05-04 18:15 34.49964 -102.86758 36843 ft 589 kts 102°
2026-05-04 18:16 34.48681 -102.76964 36861 ft 589 kts 96°
2026-05-04 18:16 34.47714 -102.67101 36833 ft 591 kts 95°
2026-05-04 18:17 34.46233 -102.52200 36815 ft 592 kts 96°
2026-05-04 18:18 34.44681 -102.37427 36822 ft 592 kts 96°
2026-05-04 18:18 34.43797 -102.29122 36789 ft 593 kts 96°
2026-05-04 18:19 34.42210 -102.14269 36778 ft 593 kts 96°
2026-05-04 18:19 34.41144 -102.04375 36778 ft 593 kts 96°
2026-05-04 18:20 34.40073 -101.94522 36751 ft 592 kts 96°
2026-05-04 18:20 34.38990 -101.84628 36814 ft 590 kts 96°
2026-05-04 18:21 34.37911 -101.74856 36833 ft 589 kts 96°
2026-05-04 18:21 34.36812 -101.64967 36852 ft 589 kts 96°
2026-05-04 18:22 34.35713 -101.55144 36822 ft 590 kts 96°
2026-05-04 18:22 34.34604 -101.45320 36786 ft 590 kts 96°
2026-05-04 18:23 34.33489 -101.35508 36759 ft 590 kts 96°
2026-05-04 18:23 34.32368 -101.25710 36744 ft 591 kts 96°
2026-05-04 18:24 34.31232 -101.15856 36738 ft 590 kts 96°
2026-05-04 18:24 34.30097 -101.06068 36746 ft 590 kts 96°
2026-05-04 18:25 34.28940 -100.96200 36743 ft 591 kts 96°
2026-05-04 18:25 34.27782 -100.86389 36736 ft 591 kts 96°
2026-05-04 18:26 34.26615 -100.76553 36739 ft 591 kts 96°
2026-05-04 18:26 34.25445 -100.66769 36736 ft 590 kts 97°
2026-05-04 18:27 34.24265 -100.56961 36761 ft 590 kts 96°
2026-05-04 18:27 34.23071 -100.47110 36744 ft 591 kts 96°
2026-05-04 18:28 34.21877 -100.37320 36741 ft 591 kts 96°
2026-05-04 18:28 34.20674 -100.27519 36779 ft 591 kts 97°
2026-05-04 18:29 34.18582 -100.17914 36793 ft 590 kts 111°
2026-05-04 18:29 34.15570 -100.08719 36759 ft 592 kts 113°
2026-05-04 18:30 34.11101 -99.94747 36758 ft 593 kts 111°
2026-05-04 18:30 34.09722 -99.90193 36735 ft 582 kts 110°
2026-05-04 18:31 34.08346 -99.85609 36732 ft 568 kts 110°
2026-05-04 18:31 34.05680 -99.76779 36755 ft 563 kts 110°
2026-05-04 18:32 34.02977 -99.67931 36766 ft 566 kts 110°
2026-05-04 18:32 34.00243 -99.59021 36762 ft 567 kts 111°
2026-05-04 18:33 33.97486 -99.50054 36750 ft 567 kts 111°
2026-05-04 18:33 33.94739 -99.41177 36774 ft 566 kts 111°
2026-05-04 18:34 33.91986 -99.32347 36760 ft 566 kts 111°
2026-05-04 18:34 33.89205 -99.23448 36767 ft 565 kts 111°
2026-05-04 18:35 33.86456 -99.14664 36749 ft 564 kts 111°
2026-05-04 18:35 33.83686 -99.05838 36802 ft 563 kts 111°
2026-05-04 18:36 33.80910 -98.97019 36789 ft 564 kts 111°
2026-05-04 18:36 33.78134 -98.88230 36809 ft 564 kts 111°
2026-05-04 18:37 33.75336 -98.79389 36820 ft 565 kts 111°
2026-05-04 18:37 33.72533 -98.70586 36840 ft 565 kts 111°
2026-05-04 18:38 33.69703 -98.61780 36824 ft 566 kts 111°
2026-05-04 18:38 33.66881 -98.52929 36824 ft 566 kts 110°
2026-05-04 18:39 33.64101 -98.44137 36819 ft 565 kts 110°
2026-05-04 18:39 33.61309 -98.35341 36832 ft 564 kts 110°
2026-05-04 18:40 33.58732 -98.27261 36853 ft 565 kts 110°
2026-05-04 18:40 33.56214 -98.18369 36707 ft 560 kts 99°
2026-05-04 18:40 33.55594 -98.13767 36159 ft 559 kts 90°
2026-05-04 18:41 33.55498 -98.09132 35543 ft 553 kts 80°
2026-05-04 18:41 33.55926 -98.04593 34970 ft 544 kts 71°
2026-05-04 18:41 33.56842 -98.00296 34409 ft 533 kts 61°
2026-05-04 18:41 33.58232 -97.96242 33846 ft 520 kts 52°
2026-05-04 18:42 33.60041 -97.92569 33214 ft 504 kts 42°
2026-05-04 18:42 33.62213 -97.89354 32595 ft 487 kts 33°
2026-05-04 18:42 33.64674 -97.86668 31975 ft 470 kts 24°
2026-05-04 18:42 33.67348 -97.84561 31358 ft 451 kts 14°
2026-05-04 18:43 33.70158 -97.83065 30766 ft 433 kts
2026-05-04 18:43 33.73013 -97.82199 30219 ft 415 kts 355°
2026-05-04 18:43 33.75828 -97.81963 29571 ft 397 kts 346°
2026-05-04 18:43 33.78510 -97.82341 28902 ft 380 kts 337°
2026-05-04 18:44 33.80975 -97.83296 28237 ft 366 kts 327°
2026-05-04 18:44 33.82455 -97.84224 27810 ft 358 kts 321°
2026-05-04 18:44 33.84972 -97.86733 26958 ft 347 kts 307°
2026-05-04 18:44 33.86369 -97.89064 26330 ft 342 kts 297°
2026-05-04 18:45 33.87300 -97.91687 25720 ft 341 kts 287°
2026-05-04 18:45 33.87729 -97.94499 25128 ft 344 kts 276°
2026-05-04 18:45 33.87636 -97.97386 24541 ft 349 kts 265°
2026-05-04 18:45 33.87020 -98.00231 23976 ft 356 kts 255°
2026-05-04 18:46 33.85947 -98.02898 23431 ft 362 kts 246°
2026-05-04 18:46 33.84643 -98.05505 22768 ft 364 kts 244°
2026-05-04 18:46 33.83290 -98.08082 22127 ft 365 kts 244°
2026-05-04 18:46 33.81930 -98.10661 21492 ft 365 kts 243°
2026-05-04 18:47 33.80390 -98.13058 20834 ft 369 kts 227°
2026-05-04 18:47 33.78111 -98.14597 20226 ft 388 kts 204°
2026-05-04 18:47 33.75414 -98.15172 19656 ft 400 kts 190°
2026-05-04 18:47 33.72608 -98.15086 19083 ft 408 kts 179°
2026-05-04 18:48 33.69838 -98.14334 18474 ft 404 kts 165°
2026-05-04 18:48 33.67366 -98.12878 17822 ft 389 kts 152°
2026-05-04 18:48 33.65344 -98.10823 17149 ft 377 kts 132°
2026-05-04 18:48 33.63881 -98.08278 16504 ft 362 kts 126°
2026-05-04 18:49 33.62508 -98.05808 15889 ft 350 kts 127°
2026-05-04 18:49 33.61152 -98.03417 15296 ft 344 kts 127°
2026-05-04 18:49 33.59804 -98.01064 14697 ft 340 kts 127°
2026-05-04 18:49 33.58475 -97.98757 14146 ft 348 kts 127°
2026-05-04 18:50 33.57131 -97.96433 13620 ft 356 kts 127°
2026-05-04 18:50 33.55716 -97.93986 13002 ft 361 kts 127°
2026-05-04 18:50 33.54272 -97.91492 12378 ft 366 kts 127°
2026-05-04 18:50 33.52815 -97.88976 11873 ft 368 kts 127°
2026-05-04 18:51 33.51370 -97.86481 11572 ft 362 kts 128°
2026-05-04 18:51 33.49947 -97.84025 11278 ft 356 kts 128°
2026-05-04 18:51 33.48544 -97.81608 10984 ft 351 kts 128°
2026-05-04 18:51 33.47161 -97.79228 10700 ft 345 kts 128°
2026-05-04 18:52 33.45828 -97.76887 10398 ft 337 kts 123°
2026-05-04 18:52 33.44754 -97.74378 10057 ft 340 kts 117°
2026-05-04 18:52 33.43811 -97.71786 9725 ft 340 kts 116°
2026-05-04 18:52 33.42896 -97.69186 9371 ft 338 kts 116°
2026-05-04 18:53 33.41978 -97.66604 9013 ft 335 kts 116°
2026-05-04 18:53 33.41057 -97.64057 8665 ft 332 kts 117°
2026-05-04 18:53 33.40130 -97.61538 8320 ft 329 kts 117°
2026-05-04 18:53 33.39206 -97.59051 7978 ft 326 kts 117°
2026-05-04 18:54 33.38286 -97.56583 7648 ft 324 kts 118°
2026-05-04 18:54 33.37380 -97.54169 7315 ft 321 kts 117°
2026-05-04 18:54 33.36462 -97.51736 6967 ft 319 kts 118°
2026-05-04 18:54 33.35554 -97.49331 6613 ft 316 kts 117°
2026-05-04 18:55 33.34652 -97.46941 6321 ft 314 kts 118°
2026-05-04 18:55 33.32863 -97.42208 5683 ft 311 kts 118°
2026-05-04 18:55 33.31980 -97.39872 5478 ft 305 kts 119°
2026-05-04 18:56 33.31114 -97.37580 5262 ft 300 kts 119°
2026-05-04 18:56 33.30267 -97.35345 5162 ft 292 kts 119°
2026-05-04 18:56 33.29433 -97.33150 5112 ft 289 kts 119°
2026-05-04 18:56 33.28603 -97.30965 5092 ft 287 kts 119°
2026-05-04 18:57 33.27786 -97.28812 5092 ft 283 kts 119°
2026-05-04 18:57 33.26968 -97.26663 5087 ft 284 kts 120°
2026-05-04 18:57 33.26149 -97.24515 5084 ft 285 kts 120°
2026-05-04 18:57 33.25108 -97.22550 4925 ft 277 kts 144°
2026-05-04 18:58 33.23584 -97.21268 4772 ft 265 kts 154°
2026-05-04 18:58 33.22133 -97.19960 4540 ft 262 kts 139°
2026-05-04 18:58 33.21025 -97.18250 4328 ft 257 kts 132°
2026-05-04 18:58 33.19978 -97.16543 4167 ft 252 kts 133°
2026-05-04 18:59 33.18959 -97.14854 3967 ft 249 kts 133°
2026-05-04 18:59 33.17969 -97.13215 3789 ft 245 kts 133°
2026-05-04 18:59 33.16933 -97.11636 3584 ft 239 kts 137°
2026-05-04 18:59 33.15862 -97.10149 3411 ft 233 kts 139°
2026-05-04 19:00 33.14705 -97.08856 3331 ft 226 kts 146°
2026-05-04 19:00 33.13473 -97.07708 3297 ft 223 kts 147°
2026-05-04 19:00 33.12231 -97.06599 3281 ft 221 kts 150°
2026-05-04 19:00 33.10897 -97.05764 3302 ft 214 kts 170°
2026-05-04 19:01 33.09476 -97.05551 3275 ft 201 kts 176°
2026-05-04 19:01 33.08076 -97.05424 3274 ft 201 kts 179°
2026-05-04 19:01 33.06701 -97.05388 3255 ft 193 kts 181°
2026-05-04 19:01 33.05411 -97.05390 3239 ft 179 kts 182°
2026-05-04 19:02 33.04190 -97.05398 3056 ft 174 kts 181°
2026-05-04 19:02 33.03019 -97.05405 2846 ft 164 kts 182°
2026-05-04 19:02 33.01938 -97.05410 2629 ft 147 kts 182°
2026-05-04 19:02 33.00964 -97.05415 2462 ft 138 kts 183°
2026-05-04 19:03 33.00001 -97.05423 2310 ft 141 kts 181°
2026-05-04 19:03 32.99017 -97.05426 2098 ft 136 kts 181°
2026-05-04 19:03 32.98110 -97.05429 1901 ft 125 kts 182°
2026-05-04 19:03 32.97236 -97.05433 1760 ft 128 kts 183°
2026-05-04 19:04 32.96388 -97.05440 1589 ft 118 kts 181°
2026-05-04 19:04 32.95530 -97.05446 1442 ft 134 kts 179°
2026-05-04 19:04 32.94597 -97.05435 1211 ft 132 kts 181°
2026-05-04 19:04 32.93687 -97.05435 1101 ft 132 kts 184°
2026-05-04 19:05 32.92769 -97.05427 987 ft 133 kts 182°
2026-05-04 19:05 32.91814 -97.05456 784 ft 138 kts 185°
2026-05-04 19:05 32.90901 -97.05464 634 ft 119 kts 184°
2026-05-04 19:05 32.90285 -97.05470 627 ft 36 kts 180°
2026-05-04 19:06 32.90119 -97.05402 631 ft 18 kts 105°
2026-05-04 19:06 32.90118 -97.05234 620 ft 28 kts 90°
2026-05-04 19:06 32.90116 -97.05004 620 ft 28 kts 91°
2026-05-04 19:06 32.90099 -97.04790 633 ft 23 kts 120°
2026-05-04 19:07 32.89974 -97.04677 632 ft 22 kts 135°
2026-05-04 19:07 32.89945 -97.04574 632 ft 0 kts 96°